Hourly Data Report for October 21, 2016

All times are specified in Local Standard Time (LST). Add 1 hour to adjust for Daylight Saving Time where and when it is observed.

QIKIQTARJUAQ A
NUNAVUT

67°32'48.000" N
64°01'54.000" W
5.50 m
2400577
YVM

Download Data

Hourly Data (October 2016)
Hourly Data Report for October 21, 2016
Temp Definition
°C
Dew Point Temp Definition
°C
Rel Hum Definition
%
Wind Dir Definition
10's deg

Wind Spd Definition
km/h
Visibility Definition
km
Stn Press Definition
kPa
Hmdx Definition


Wind Chill Definition


Weather Definition


TIME
00:00 Legend Double Dagger -2.0 -11.3 49 7 11 16.1 100.34   -6 LegendNANA
01:00 Legend Double Dagger -3.2 -11.0 55 29 9 16.1 100.38   -7 LegendNANA
02:00 Legend Double Dagger -3.6 -11.7 54 12 8 16.1 100.39   -7 LegendNANA
03:00 Legend Double Dagger -1.4 -13.2 41 LegendMM 8 16.1 100.45   -4 LegendNANA
04:00 Legend Double Dagger -2.1 -11.2 50 28 15 16.1 100.47   -7 LegendNANA
05:00 Legend Double Dagger -2.3 -11.7 49 29 21 16.1 100.49   -8 LegendNANA
06:00 Legend Double Dagger -3.6 -14.4 43 LegendMM 8 16.1 100.55   -7 LegendNANA
07:00 Legend Double Dagger -5.4 -13.6 53 11 8 16.1 100.57   -9 LegendNANA
08:00 Legend Double Dagger -3.3 -15.0 40   0 16.1 100.57     LegendNANA
09:00 Legend Double Dagger -5.2 -13.2 54 14 13 16.1 100.62   -10 LegendNANA
10:00 Legend Double Dagger -3.5 -9.4 64 26 5 16.1 100.63   -6 LegendNANA
11:00 Legend Double Dagger -3.7 -12.0 53 LegendMM 4 16.1 100.65   -5 LegendNANA
12:00 Legend Double Dagger -3.4 -10.6 58 LegendMM 4 16.1 100.68   -5 LegendNANA
13:00 Legend Double Dagger -3.2 -10.4 58 15 8 16.1 100.72   -6 LegendNANA
14:00 Legend Double Dagger -2.9 -11.9 50 25 13 16.1 100.76   -8 LegendNANA
15:00 Legend Double Dagger -3.5 -12.7 49 27 18 16.1 100.80   -9 LegendNANA
16:00 Legend Double Dagger -5.3 -14.1 50 22 15 16.1 100.86   -11 LegendNANA
17:00 Legend Double Dagger -5.1 -15.9 43 22 8 16.1 100.88   -9 LegendNANA
18:00 Legend Double Dagger -4.5 -11.7 57 LegendMM 13 16.1 100.93   -10 LegendNANA
19:00 Legend Double Dagger -8.0 -14.5 60 16 4 16.1 100.98   -10 LegendNANA
20:00 Legend Double Dagger -5.9 -13.1 57 19 17 16.1 101.00   -12 LegendNANA
21:00 Legend Double Dagger -5.6 -9.0 77 18 9 11.3 101.04   -10 Snow
22:00 Legend Double Dagger -5.1 -6.8 88 20 18 14.5 101.03   -11 Snow
23:00 Legend Double Dagger -4.1 -5.7 89 32 18 3.6 101.09   -10 Snow

Notes on Data Quality.

Legend

  • E = Estimated
  • M = Missing
  • NA = Not Available
  • ‡ = Partner data that is not subject to review by the National Climate Archives
Date modified: